Hourly Data Report for November 27, 2016

All times are specified in Local Standard Time (LST). Add 1 hour to adjust for Daylight Saving Time where and when it is observed.

KITCHENER/WATERLOO
ONTARIO

43°27'39.000" N
80°22'43.000" W
321.60 m
6144239
71368
YKF

Download Data

Hourly Data (November 2016)
Hourly Data Report for November 27, 2016
Temp Definition
°C
Dew Point Temp Definition
°C
Rel Hum Definition
%
Wind Dir Definition
10's deg

Wind Spd Definition
km/h
Visibility Definition
km
Stn Press Definition
kPa
Hmdx Definition


Wind Chill Definition


Weather Definition


TIME
00:00 Legend Double Dagger 1.3 0.4 94 26 22 16.1 98.17     Rain
01:00 Legend Double Dagger 1.3 0.6 95 27 15 8.1 98.19     Rain,Fog
02:00 Legend Double Dagger 0.4 0.0 97 28 8 4.0 98.21     Snow
03:00 Legend Double Dagger 1.1 0.2 94 28 13 16.1 98.23     LegendNANA
04:00 Legend Double Dagger 1.5 0.3 92 26 17 16.1 98.23     LegendNANA
05:00 Legend Double Dagger 1.6 0.1 90 26 15 16.1 98.20     LegendNANA
06:00 Legend Double Dagger 0.3 -0.9 92 24 9 16.1 98.19     LegendNANA
07:00 Legend Double Dagger 0.4 -0.5 94 24 11 16.1 98.22     LegendNANA
08:00 Legend Double Dagger 0.9 -0.1 93 23 9 16.1 98.24     LegendNANA
09:00 Legend Double Dagger 1.5 0.5 93 24 9 12.9 98.25     LegendNANA
10:00 Legend Double Dagger 2.3 0.8 90 23 11 12.9 98.26     LegendNANA
11:00 Legend Double Dagger 3.8 2.0 88 21 13 11.3 98.26     LegendNANA
12:00 Legend Double Dagger 4.9 2.7 86 24 11 11.3 98.17     LegendNANA
13:00 Legend Double Dagger 5.8 2.5 79 25 15 14.5 98.13     LegendNANA
14:00 Legend Double Dagger 6.4 2.3 75 22 13 16.1 98.08     LegendNANA
15:00 Legend Double Dagger 7.5 1.1 64 23 18 16.1 98.06     LegendNANA
16:00 Legend Double Dagger 5.9 0.6 69 21 9 16.1 98.02     LegendNANA
17:00 Legend Double Dagger 3.9 0.4 78 17 5 16.1 98.02     LegendNANA
18:00 Legend Double Dagger 3.1 0.2 81 19 9 16.1 98.04     LegendNANA
19:00 Legend Double Dagger 2.0 -0.1 86 18 9 16.1 98.06     LegendNANA
20:00 Legend Double Dagger 1.4 0.4 93 15 4 11.3 98.04     LegendNANA
21:00 Legend Double Dagger -1.4 -1.8 97   0 4.8 98.04     Fog
22:00 Legend Double Dagger -3.0 -3.3 98 8 8 2.4 97.99   -6 Fog
23:00 Legend Double Dagger -1.2 -1.3 99 13 4 0.8 97.95   -3 Freezing Fog

Notes on Data Quality.

Legend

  • E = Estimated
  • M = Missing
  • NA = Not Available
  • ‡ = Partner data that is not subject to review by the National Climate Archives
Date modified: